London City, United Kingdom

12:09 PM BST on April 29, 2017 (GMT +0100)
London City

Weather History for EGLC - April, 2013

Change the Weather History Date:

Friday, April 26, 2013

  Actual Average Record
Temperature  
Mean Temperature 50 °F -  
Max Temperature 57 °F 57 °F 68 °F (2004)
Min Temperature 44 °F 46 °F 39 °F (2016)
Degree Days  
Heating Degree Days 14    
Moisture  
Dew Point 38 °F    
Average Humidity 67    
Maximum Humidity 93    
Minimum Humidity 35    
Precipitation  
Precipitation 0.00 in - - ()
Sea Level Pressure  
Sea Level Pressure 29.97 in    
Wind  
Wind Speed 8 mph ()    
Max Wind Speed 17 mph    
Max Gust Speed 30 mph    
Visibility 6.0 miles    
Events Rain    
Averages and records for this station are not official NWS values.
T = Trace of Precipitation, MM = Missing Value Source: Averaged Metar Reports

Daily Weather History Graph

Daily Weather History Graph

Search for Another Location

Airport or City:

Trip Planner

Search our weather history database for the weather conditions in past years. The results will help you decide how hot, cold, wet, or windy it might be!

Date:

Astronomy

Apr. 26, 2013 Rise Set
Actual Time 5:41 AM BST 8:15 PM BST
Civil Twilight 5:03 AM BST 8:52 PM BST
Nautical Twilight 4:16 AM BST 9:40 PM BST
Astronomical Twilight 3:19 AM BST 10:37 PM BST
Moon 9:29 PM BST (4/26) 5:52 AM BST (4/26)
Length of Visible Light 15h 48m
Length of Day
14h 33m
Waxing Gibbous, 99% of the Moon is Illuminated
Apr 26
Waxing Gibbous
May 2
Last Quarter
May 10
New
May 18
First Quarter
May 25
Full

Hourly Weather History & Observations

Time (BST) Temp. Windchill Dew Point Humidity Pressure Visibility Wind Dir Wind Speed Gust Speed Precip Events Conditions
12:20 AM 57.2 °F - 48.2 °F 72% 30.04 in 6.2 mi North 5.8 mph - N/A   Mostly Cloudy
12:50 AM 55.4 °F - 46.4 °F 72% 30.04 in 6.2 mi North 6.9 mph - N/A   Mostly Cloudy
1:20 AM 55.4 °F - 46.4 °F 72% 30.04 in 6.2 mi NNW 8.1 mph - N/A   Overcast
1:50 AM 55.4 °F - 46.4 °F 72% 30.01 in 6.2 mi NNW 8.1 mph - N/A   Overcast
2:20 AM 53.6 °F - 46.4 °F 77% 30.01 in 6.2 mi NNW 11.5 mph - N/A   Mostly Cloudy
2:50 AM 51.8 °F - 44.6 °F 76% 30.01 in 6.2 mi NNW 12.7 mph - N/A   Overcast
3:20 AM 50.0 °F - 44.6 °F 82% 30.01 in 6.2 mi NW 12.7 mph - N/A   Overcast
3:50 AM 48.2 °F - 42.8 °F 82% 30.01 in 5.6 mi NNW 12.7 mph - N/A   Mostly Cloudy
4:20 AM 46.4 °F 41.1 °F 44.6 °F 93% 30.04 in 2.8 mi NNW 11.5 mph - N/A   Drizzle
4:50 AM 46.4 °F 41.9 °F 44.6 °F 93% 30.04 in - NNW 9.2 mph - N/A   Drizzle
5:20 AM 46.4 °F 42.4 °F 44.6 °F 93% 30.01 in 6.2 mi NNW 8.1 mph - N/A   Drizzle
5:50 AM 46.4 °F 42.4 °F 42.8 °F 87% 30.01 in 6.2 mi NNW 8.1 mph - N/A   Light Drizzle
6:20 AM 44.6 °F 39.7 °F 42.8 °F 93% 30.01 in 6.2 mi NNW 9.2 mph - N/A Rain Light Rain
6:50 AM 44.6 °F 40.7 °F 42.8 °F 93% 30.04 in 3.7 mi NW 6.9 mph - N/A Rain Rain
7:20 AM 44.6 °F 40.7 °F 42.8 °F 93% 30.04 in 4.3 mi NW 6.9 mph - N/A Rain Rain
7:50 AM 44.6 °F 40.7 °F 41.0 °F 87% 30.01 in 6.2 mi NNW 6.9 mph - N/A Rain Rain
8:20 AM 44.6 °F 43.1 °F 41.0 °F 87% 30.04 in 6.2 mi Variable 3.5 mph - N/A Rain Light Rain
8:50 AM 44.6 °F 41.4 °F 42.8 °F 93% 30.01 in 6.2 mi NNW 5.8 mph - N/A Rain Light Rain
9:20 AM 46.4 °F 43.5 °F 42.8 °F 87% 30.01 in 6.2 mi NNW 5.8 mph - N/A Rain Light Rain
9:50 AM 46.4 °F 43.5 °F 41.0 °F 81% 30.01 in 6.2 mi NNW 5.8 mph - N/A   Mostly Cloudy
10:20 AM 48.2 °F - 41.0 °F 76% 30.01 in 6.2 mi NW 9.2 mph - N/A   Scattered Clouds
10:50 AM 48.2 °F - 41.0 °F 76% 30.01 in 6.2 mi NNW 9.2 mph - N/A   Scattered Clouds
11:20 AM 48.2 °F - 37.4 °F 66% 30.01 in 6.2 mi NNW 10.4 mph - N/A   Scattered Clouds
11:50 AM 50.0 °F - 37.4 °F 62% 29.98 in 6.2 mi North 8.1 mph - N/A   Scattered Clouds
12:20 PM 50.0 °F - 35.6 °F 58% 29.98 in 6.2 mi NW 5.8 mph - N/A   Scattered Clouds
12:50 PM 50.0 °F - 37.4 °F 62% 29.98 in 6.2 mi NNW 9.2 mph - N/A Rain Light Rain
1:20 PM 50.0 °F - 37.4 °F 62% 29.95 in 6.2 mi WNW 8.1 mph - N/A   Scattered Clouds
1:50 PM 51.8 °F - 35.6 °F 54% 29.95 in 6.2 mi WNW 9.2 mph 24.2 mph N/A   Scattered Clouds
2:20 PM 51.8 °F - 32.0 °F 47% 29.95 in 6.2 mi NW 12.7 mph - N/A   Scattered Clouds
2:50 PM 51.8 °F - 35.6 °F 54% 29.95 in 6.2 mi North 13.8 mph - N/A Rain Light Rain Showers
3:20 PM 50.0 °F - 37.4 °F 62% 29.95 in 6.2 mi NW 15.0 mph 29.9 mph N/A Rain Rain Showers
3:50 PM 51.8 °F - 37.4 °F 58% 29.95 in 6.2 mi Variable 3.5 mph - N/A   Scattered Clouds
4:20 PM 53.6 °F - 30.2 °F 41% 29.92 in 6.2 mi WNW 11.5 mph - N/A   Scattered Clouds
4:50 PM 51.8 °F - 30.2 °F 44% 29.92 in 6.2 mi NNW 10.4 mph - N/A   Scattered Clouds
5:20 PM 50.0 °F - 32.0 °F 50% 29.92 in 6.2 mi NW 17.3 mph - N/A   Partly Cloudy
5:50 PM 51.8 °F - 30.2 °F 44% 29.92 in 6.2 mi North 5.8 mph - N/A   Partly Cloudy
6:20 PM 51.8 °F - 28.4 °F 41% 29.92 in 6.2 mi NW 8.1 mph - N/A   Partly Cloudy
6:50 PM 51.8 °F - 24.8 °F 35% 29.92 in 6.2 mi NW 10.4 mph - N/A   Partly Cloudy
7:20 PM 51.8 °F - 28.4 °F 41% 29.89 in - NNW 9.2 mph - N/A   Clear
7:50 PM 48.2 °F - 33.8 °F 58% 29.89 in 6.2 mi ENE 5.8 mph - N/A   Partly Cloudy
8:20 PM 46.4 °F 43.5 °F 33.8 °F 62% 29.92 in 6.2 mi East 5.8 mph - N/A   Partly Cloudy
8:50 PM 46.4 °F 43.5 °F 33.8 °F 62% 29.92 in 6.2 mi ESE 5.8 mph - N/A   Partly Cloudy
9:20 PM 48.2 °F - 32.0 °F 54% 29.92 in 6.2 mi Variable 2.3 mph - N/A   Partly Cloudy
9:50 PM 48.2 °F - 32.0 °F 54% 29.92 in 6.2 mi NW 4.6 mph - N/A   Unknown
10:20 PM 48.2 °F - 30.2 °F 50% 29.92 in 6.2 mi NW 3.5 mph - N/A   Unknown
10:50 PM 46.4 °F 45.2 °F 30.2 °F 53% 29.92 in 6.2 mi WNW 3.5 mph - N/A   Unknown
11:20 PM 46.4 °F 45.2 °F 30.2 °F 53% 29.92 in 6.2 mi Variable 3.5 mph - N/A   Unknown
11:50 PM 46.4 °F 43.5 °F 30.2 °F 53% 29.92 in 6.2 mi WNW 5.8 mph - N/A   Unknown